Flag for Netherlands Weather past 2 weeks in Apeldoorn, Netherlands

Now
75 °F

Thunderstorms. Fog.


Feels Like: 75 °F
Forecast: 56 / 64 °F
Wind: 12 mph from West

Location: Deelen

Current Time: Aug 31, 2015 at 6:23:34 PM

Latest Report: Aug 31, 2015 at 5:55 PM


Visibility: N/A

Pressure: 29.77 "Hg

Humidity: 83%

Dew point: 70 °F

Location of ApeldoornLocation

Historic Weather in Apeldoorn — Graph

°F

Apeldoorn temperature yesterday

Maximum temperature yesterday: 79 °F (at 2:55 PM)
Minimum temperature yesterday: 57 °F (at 5:55 AM)
Average temperature yesterday: 68 °F

Past Weeks' High & Low Weather Summary

 TemperatureHumidityPressure
High82 °F (Aug 31, 2:55 PM)100% (Aug 16, 6:55 PM)30.24 "Hg (Aug 16, 6:55 PM)
Low46 °F (Aug 29, 6:55 AM)37% (Aug 23, 3:25 PM)29.47 "Hg (Aug 24, 3:55 PM)
Average64 °F79%29.95 "Hg
* Reported Aug 16 4:25 PM — Aug 31 4:55 PM, Apeldoorn, Weather by CustomWeather, © 2015

Note: Actual official high and low records may vary slightly from our data, if they occured in-between our weather recording intervals... More about our weather records

Advertising

Apeldoorn weather history for previous 24 hours

 ConditionsComfort  
Time TempWeatherWind HumidityBarometerVisibility
4:55 PM
Mon, Aug 31
79 °FOvercast.7 mph70%29.74 "HgN/A
4:25 PM81 °FPassing clouds.9 mph66%29.74 "HgN/A
3:55 PM82 °FPassing clouds.8 mph58%29.74 "HgN/A
3:25 PM81 °FPassing clouds.9 mph66%29.74 "HgN/A
2:55 PM82 °FPassing clouds.10 mph62%29.77 "HgN/A
2:25 PM81 °FSunny.7 mph66%29.77 "HgN/A
1:55 PM81 °FPassing clouds.8 mph66%29.77 "HgN/A
1:25 PM79 °FPartly sunny.10 mph70%29.80 "HgN/A
12:55 PM79 °FPassing clouds.9 mph70%29.80 "HgN/A
12:25 PM77 °FPassing clouds.9 mph74%29.80 "HgN/A
11:55 AM77 °FSunny.9 mph74%29.83 "HgN/A
11:25 AM75 °FSunny.10 mph78%29.83 "HgN/A
10:55 AM73 °FPassing clouds.8 mph78%29.83 "HgN/A
10:25 AM73 °FPartly sunny.9 mph78%29.83 "HgN/A
9:55 AM72 °FPassing clouds.9 mph83%29.86 "HgN/A
9:25 AM70 °FScattered clouds.9 mph83%29.86 "HgN/A
8:55 AM68 °FSunny.7 mph88%29.86 "HgN/A
8:25 AM66 °FPartly sunny.6 mph94%29.89 "HgN/A
7:55 AM66 °FOvercast.5 mph94%29.89 "HgN/A
7:25 AM64 °FOvercast.5 mph94%29.89 "HgN/A
6:55 AM64 °FOvercast.8 mph94%29.89 "HgN/A
6:25 AM63 °FMostly cloudy.6 mph100%29.92 "HgN/A
5:55 AM63 °FOvercast.5 mph100%29.92 "HgN/A
5:25 AM64 °FMostly cloudy.3 mph94%29.89 "HgN/A
4:55 AM63 °FOvercast.2 mph100%29.89 "HgN/A
4:25 AM63 °FOvercast.7 mph100%29.92 "HgN/A
3:55 AM63 °FMostly cloudy.8 mph100%29.92 "HgN/A
3:25 AM63 °FThunderstorms. Fog.5 mph100%30.01 "HgN/A
2:55 AM66 °FThunderstorms. Fog.20 mph94%30.04 "HgN/A
2:25 AM66 °FOvercast.5 mph94%29.95 "HgN/A
1:55 AM66 °FMostly cloudy.3 mph94%29.95 "HgN/A
1:25 AM66 °FThunderstorms. Fog.3 mph94%29.95 "HgN/A
12:55 AM66 °FThunderstorms. Fog.6 mph94%30.01 "HgN/A
12:25 AM68 °FThunderstorms. Fog.9 mph94%30.01 "HgN/A
11:25 PM
Sun, Aug 30
70 °FThunderstorms. Fog.3 mph94%29.98 "HgN/A
10:55 PM72 °FThunderstorms. Fog.5 mph88%29.98 "HgN/A
10:25 PM72 °FThunderstorms. Fog.5 mph88%29.98 "HgN/A
9:55 PM72 °FPassing clouds.1 mph88%29.98 "HgN/A
9:25 PM70 °FScattered clouds.2 mph94%29.98 "HgN/A
8:55 PM72 °FPassing clouds.1 mph88%29.98 "HgN/A
8:25 PM73 °FScattered clouds.3 mph83%29.98 "HgN/A
7:55 PM73 °FPassing clouds.5 mph89%29.98 "HgN/A
7:25 PM75 °FPassing clouds.5 mph83%29.98 "HgN/A
6:55 PM75 °FBroken clouds.3 mph83%29.98 "HgN/A
6:25 PM77 °FPassing clouds.6 mph79%29.98 "HgN/A
Weather by CustomWeather, © 2015

See weather overviewHow to use our weather pages